DW7680 Weather Reports


time (UTC)temp
F
wind
direction
speed
knots
gust
knots
rain 1hr
in
rain 24hr
in
rain mn
in
humidity
%
barometer
mb
20260506181604 57 239 7.8 15.6 0.00 0.00 0.00 24 1012.0
20260506180100 56 265 7.8 19.1 0.00 0.00 0.00 25 1012.0
20260506180002 56 328 8.7 19.1 0.00 0.00 0.00 24 1012.1
20260506174502 56 237 9.6 20.0 0.00 0.00 0.00 23 1012.1
20260506173003 56 263 7.8 15.6 0.00 0.00 0.00 25 1012.1
20260506171501 55 265 8.7 15.6 0.00 0.00 0.00 26 1012.1
20260506170110 56 252 7.0 12.2 0.00 0.00 0.00 27 1012.1
20260506170001 56 261 6.1 12.2 0.00 0.00 0.00 27 1011.9
20260506164626 54 246 10.4 14.8 0.00 0.00 0.00 25 1012.0
20260506163006 54 292 7.0 17.4 0.00 0.00 0.00 27 1011.7
20260506161603 53 280 8.7 17.4 0.00 0.00 0.00 30 1011.7
20260506160003 53 309 8.7 18.2 0.00 0.00 0.00 30 1011.5
20260506154502 52 253 8.7 20.0 0.00 0.00 0.00 32 1011.4
20260506153100 52 257 6.1 18.2 0.00 0.00 0.00 32 1011.3
20260506153001 52 317 6.1 18.2 0.00 0.00 0.00 32 1011.3
20260506151502 51 319 8.7 16.5 0.00 0.00 0.00 35 1011.1
20260506150003 50 238 10.4 18.2 0.00 0.00 0.00 40 1011.1
20260506144610 50 280 9.6 17.4 0.00 0.00 0.00 40 1011.3
20260506143001 49 232 7.8 26.9 0.00 0.00 0.00 43 1011.2
20260506141600 49 255 10.4 23.5 0.00 0.00 0.00 42 1011.1
20260506141503 49 248 12.2 23.5 0.00 0.00 0.00 43 1011.1
20260506140100 49 251 7.0 15.6 0.00 0.00 0.00 44 1011.3
20260506140002 49 247 6.1 15.6 0.00 0.00 0.00 46 1011.3
20260506134600 48 249 7.8 15.6 0.00 0.00 0.00 47 1011.1
20260506134501 48 236 7.0 12.2 0.00 0.00 0.00 47 1011.0
20260506133002 48 258 5.2 9.6 0.00 0.00 0.00 51 1010.9
20260506131502 47 258 6.1 10.4 0.00 0.00 0.00 53 1010.6
20260506130002 46 242 6.1 12.2 0.00 0.00 0.00 54 1010.6
20260506124601 46 263 2.6 13.9 0.00 0.00 0.00 55 1010.7
20260506123101 45 271 2.6 11.3 0.00 0.00 0.00 55 1010.5
20260506123001 45 266 3.5 11.3 0.00 0.00 0.00 56 1010.5
20260506121501 45 234 1.7 7.0 0.00 0.00 0.00 56 1010.1
20260506120004 45 240 0.0 6.1 0.00 0.00 0.00 55 1009.9
20260506114500 45 241 0.9 3.5 0.00 0.00 0.00 55 1009.7
20260506113101 46 294 1.7 6.1 0.00 0.00 0.00 54 1009.8
20260506113001 46 271 1.7 7.0 0.00 0.00 0.00 54 1009.8
20260506111601 46 292 1.7 7.8 0.00 0.00 0.00 54 1009.7
20260506110114 46 240 1.7 9.6 0.00 0.00 0.00 55 1009.7
20260506110002 46 240 1.7 9.6 0.00 0.00 0.00 55 1009.7
20260506104615 47 290 2.6 9.6 0.00 0.00 0.00 55 1009.4
20260506104500 47 276 2.6 9.6 0.00 0.00 0.00 55 1009.3
20260506103005 46 261 1.7 6.1 0.00 0.00 0.00 55 1009.1
20260506101504 47 219 1.7 9.6 0.00 0.00 0.00 55 1008.9
20260506100002 47 281 0.9 4.3 0.00 0.00 0.00 54 1008.8
20260506094501 47 271 0.9 4.3 0.00 0.00 0.00 53 1008.8
20260506093001 48 275 2.6 11.3 0.00 0.00 0.00 52 1008.7
20260506091502 48 232 0.9 7.8 0.00 0.00 0.00 52 1008.7
20260506090004 49 248 0.9 9.6 0.00 0.00 0.00 50 1008.6
20260506084503 49 269 1.7 13.0 0.00 0.00 0.00 48 1008.5
20260506083003 49 261 4.3 12.2 0.00 0.00 0.00 47 1008.5
20260506081503 50 240 4.3 8.7 0.00 0.00 0.00 45 1008.5
20260506073002 51 250 2.6 8.7 0.00 0.00 0.00 41 1008.3
20260506071502 51 248 3.5 8.7 0.00 0.00 0.00 39 1008.2
20260506061503 53 234 8.7 15.6 0.00 0.00 0.00 36 1007.7
20260506044503 54 215 3.5 12.2 0.00 0.00 0.00 42 1007.5
20260506043003 54 245 3.5 12.2 0.00 0.00 0.00 43 1007.3
20260506041503 54 255 5.2 13.0 0.00 0.00 0.00 44 1007.1
20260506040004 54 255 4.3 8.7 0.00 0.00 0.00 46 1007.0
20260506034504 54 234 4.3 10.4 0.00 0.00 0.00 45 1006.8
20260506033006 54 243 6.1 12.2 0.00 0.00 0.00 45 1006.6
20260506031504 55 236 7.0 17.4 0.00 0.00 0.00 44 1006.3
20260506030004 55 259 7.8 19.1 0.00 0.00 0.00 44 1006.1
20260506024503 55 246 7.8 18.2 0.00 0.00 0.00 43 1006.1
20260506023003 55 237 6.1 14.8 0.00 0.00 0.00 44 1005.9
20260506021502 55 223 7.8 18.2 0.00 0.00 0.00 44 1005.6
20260506020005 55 305 7.8 20.0 0.00 0.00 0.00 45 1005.5
20260506014504 55 264 10.4 16.5 0.00 0.00 0.00 45 1005.4
20260506013004 55 246 8.7 24.3 0.00 0.00 0.00 45 1005.2
20260506011507 55 254 9.6 20.9 0.00 0.00 0.00 46 1005.1
20260506010005 55 227 12.2 20.0 0.00 0.00 0.00 46 1005.1
20260506004503 55 217 8.7 20.9 0.00 0.00 0.00 48 1004.9
20260506003003 55 256 11.3 20.9 0.00 0.00 0.00 50 1005.0
20260506001503 56 234 11.3 20.9 0.00 0.00 0.00 50 1004.8
20260506000005 56 216 10.4 20.9 0.00 0.00 0.00 49 1004.6
20260505234503 56 240 11.3 24.3 0.00 0.00 0.00 51 1004.7
20260505233003 56 260 9.6 25.2 0.00 0.00 0.00 51 1004.6
20260505231503 56 246 13.0 27.8 0.00 0.00 0.00 50 1004.4
20260505230010 56 224 14.8 33.0 0.00 0.00 0.00 50 1004.4
20260505224502 56 259 13.9 26.9 0.00 0.00 0.00 52 1004.4
20260505223003 56 240 15.6 27.8 0.00 0.00 0.00 52 1004.3
20260505221503 56 231 16.5 33.0 0.00 0.00 0.00 52 1004.5
20260505220004 56 286 10.4 25.2 0.00 0.00 0.00 50 1004.6
20260505214502 56 260 15.6 26.1 0.00 0.00 0.00 51 1004.6
20260505213007 56 244 11.3 28.7 0.00 0.00 0.00 52 1004.8
20260505211508 55 243 15.6 32.2 0.00 0.00 0.00 55 1005.2
20260505210004 55 240 11.3 26.1 0.00 0.00 0.00 56 1005.2
20260505204503 54 276 13.9 27.8 0.00 0.00 0.00 60 1005.2
20260505203002 53 253 15.6 28.7 0.00 0.00 0.00 63 1005.4
20260505201502 54 277 9.6 18.2 0.00 0.00 0.00 60 1005.2
20260505200007 51 277 10.4 21.7 0.00 0.00 0.00 66 1005.4
20260505194502 52 235 13.9 28.7 0.00 0.00 0.00 68 1005.7
20260505193003 53 240 13.9 26.1 0.00 0.00 0.00 65 1005.5
20260505191509 54 269 9.6 21.7 0.00 0.00 0.00 58 1005.4
20260505190010 54 286 14.8 26.1 0.00 0.00 0.00 55 1005.4
20260505184507 58 255 13.0 26.1 0.00 0.00 0.00 46 1005.0
20260505183011 59 253 14.8 28.7 0.00 0.00 0.00 45 1004.6